sat.trackr.live / text

‹ back to catalog

STARLINK-33859

NORAD 63640 · 2025-083G

PAYLOAD ACTIVE UNKNOWN

§ Identity

Operator
Country
US
Launch date
2025-04-25
Launch site
AFETR
Launch vehicle
Mass (kg)
RCS (m²)

Purposes: comms

External: N2YO · Heavens-Above · Gunter

§ Orbital elements

Epoch: 2026-09-20T22:35:34.157184Z

Period
94.27 min
Inclination
43.0042°
Eccentricity
0.0001771
Mean motion
15.27582189 rev/d
Perigee alt
481.8 km
Apogee alt
484.3 km
Semi-major
6,861.2 km
B*
2.8489e-4
RAAN
342.9161°
Arg perigee
272.0755°
Mean anomaly
87.9894°
Rev number
7,992

§ Raw data

STARLINK-338591 63640U 25083G   26263.94136756  .00007586  00000+0  28489-3 0  99962 63640  43.0042 342.9161 0001771 272.0755  87.9894 15.27582189 79924

JSON: /api/v1/satellites/63640 · /tle

For live sub-satellite position, see the globe view (requires WebGL).

§ Visibility from observer

Set your observer location to see the next 7 days of passes ≥ 10°. The values pass through the URL so the page stays shareable.

No JS? Fill the form by hand. The geolocation button needs JavaScript.